Home > Weather > Medicine Hat > Past weeks

Flag for Canada Weather for the Past 2 Weeks in Medicine Hat, Alberta, Canada

Now
23 °F

Low clouds.


Feels Like: 11 °F
Forecast: 26 / 40 °F
Wind: 14 mph from East

Location: Medicine Hat

Current Time: Feb 12, 2016 at 6:01:28 AM

Latest Report: Feb 12, 2016 at 5:00 AM


Visibility: 8 mi

Pressure: 30.42 "Hg (27.96 "Hg at 661m altitude)

Humidity: 93%

Dew point: 21 °F

Location of Medicine HatLocation

Historic Weather in Medicine Hat — Graph

°F

Medicine Hat Temperature Yesterday

Maximum temperature yesterday: 37 °F (at 2:00 PM)
Minimum temperature yesterday: 27 °F (at 7:47 AM)
Average temperature yesterday: 32 °F

High & Low Weather Summary for the Past Weeks

 TemperatureHumidityPressure
High55 °F (Feb 8, 2:00 PM)100% (Jan 30, 1:00 AM)30.54 "Hg (Jan 30, 1:00 AM)
Low10 °F (Feb 3, 8:00 AM)26% (Feb 7, 2:00 PM)29.45 "Hg (Jan 28, 7:00 PM)
Average32 °F78%30.03 "Hg
* Reported Jan 28 5:00 AM — Feb 12 5:00 AM, Medicine Hat, Weather by CustomWeather, © 2016

Note: Actual official high and low records may vary slightly from our data, if they occured in-between our weather recording intervals... More about our weather records

Advertising

Medicine Hat Weather History for the Previous 24 Hours

 ConditionsComfort  
Time TempWeatherWind HumidityBarometerVisibility
5:00 AM
Fri, Feb 12
23 °FLow clouds.14 mph93%30.42 "Hg8 mi
4:00 AM25 °FLow clouds.14 mph93%30.43 "Hg8 mi
3:00 AM25 °FLow clouds.10 mph100%30.42 "Hg8 mi
2:00 AM25 °FMostly cloudy.13 mph100%30.42 "Hg9 mi
1:00 AM28 °FMostly cloudy.12 mph93%30.41 "Hg9 mi
12:00 AM34 °FOvercast.7 mph87%30.40 "Hg9 mi
11:00 PM
Thu, Feb 11
34 °FOvercast.7 mph93%30.39 "Hg9 mi
10:00 PM36 °FOvercast.6 mph87%30.38 "Hg9 mi
9:00 PM36 °FOvercast.10 mph87%30.36 "Hg9 mi
8:00 PM36 °FFog.7 mph87%30.35 "Hg6 mi
7:00 PM32 °FIce fog.7 mph100%30.35 "Hg6 mi
6:00 PM36 °FFog.5 mph93%30.33 "Hg6 mi
5:00 PM36 °FBroken clouds.5 mph93%30.31 "Hg10 mi
4:00 PM37 °FPartly sunny.7 mph81%30.31 "Hg10 mi
2:00 PM37 °FFog.9 mph81%30.28 "Hg6 mi
1:00 PM36 °FFog.7 mph81%30.30 "Hg6 mi
12:00 PM32 °FIce fog.8 mph93%30.32 "Hg6 mi
11:00 AM28 °FIce fog.No wind100%30.29 "Hg6 mi
10:00 AM27 °FLight snow. Ice fog.3 mph100%30.29 "Hg6 mi
9:00 AM27 °FIce fog.6 mph100%30.26 "Hg6 mi
8:00 AM27 °FLight freezing rain. Low clouds.5 mph100%30.23 "Hg10 mi
7:47 AM27 °FLight freezing rain. Low clouds.7 mph100%30.21 "Hg8 mi
7:00 AM28 °FLow clouds.8 mph100%30.18 "Hg15 mi
6:00 AM28 °FLow clouds.6 mph100%30.15 "Hg15 mi
Weather by CustomWeather, © 2016

See weather overviewHow to use our weather pages